{"data":{"norad_id":56460,"epoch":"2026-09-20T14:28:48.830880Z","epoch_age_seconds":103241,"freshness":"FRESH","line1":"1 56460U 23064N   26263.60334295  .00000352  00000+0  37287-4 0  9997","line2":"2 56460  70.0008  12.9533 0003194 271.0756  89.0037 14.98331869184446","mean_motion":14.98331869,"eccentricity":0.0003194,"inclination_deg":70.0008,"raan_deg":12.9533,"arg_perigee_deg":271.0756,"mean_anomaly_deg":89.0037,"bstar":3.7287e-5,"rev_number":18444,"period_min":96.106879243052,"perigee_km":569.83022145877,"apogee_km":574.27000098542,"semimajor_km":6950.1871112221,"source":"CELESTRAK","updated_at":"2026-09-21T09:00:33.443316Z"}}